Location: Peach Mountain Observatory
(42.3967°N, 83.9367°W)
Time: 21:16:38
(UTC-04:00)

deb Explorer IX - Pass Details

Date: 21 January 2020
Orbit: 547 x 1101 km, 38.8° (Epoch: 28 March)

Event Time Altitude Azimuth Distance (km) Brightness Sun altitude
Rises 22:39:27 0° 217° (SW) 3,808 - -54.9°
Reaches altitude 10° 22:42:28 10° 207° (SSW) 2,901 - -55.4°
Maximum altitude 22:48:32 30° 150° (SSE) 1,850 - -56.3°
Drops below altitude 10° 22:54:39 10° 92° (E) 2,929 - -57.3°
Sets 22:57:42 0° 83° (E) 3,850 - -57.7°
